This is the latest recevied weather packets stored in our database for station/object N9CQL. If no packets are shown the sender has not sent any weather packets the latest 10 day(s).
| Time | Temp. | Humidity | Pressure | Rain* | Wind** | Luminosity | Snow |
|---|---|---|---|---|---|---|---|
| 1777987166 | 7.78° C | 89% | 1008.3 hPa | 3.05 mm | - | 17 W/m² | - |
| 1777986863 | 7.78° C | 89% | 1008.2 hPa | 3.05 mm | - | 15 W/m² | - |
| 1777986561 | 7.22° C | 88% | 1007.6 hPa | 1.27 mm | - | 16 W/m² | - |
| 1777986259 | 7.22° C | 87% | 1007.4 hPa | 1.27 mm | - | 20 W/m² | - |
| 1777985956 | 7.22° C | 87% | 1007.4 hPa | 1.78 mm | - | 17 W/m² | - |
| 1777985654 | 7.78° C | 87% | 1007.4 hPa | 3.05 mm | - | 20 W/m² | - |
| 1777985349 | 7.78° C | 87% | 1007.6 hPa | 3.05 mm | - | 20 W/m² | - |
| 1777985047 | 7.78° C | 86% | 1007.7 hPa | 3.05 mm | - | 16 W/m² | - |
| 1777984743 | 8.33° C | 85% | 1007.5 hPa | 3.05 mm | - | 16 W/m² | - |
| 1777984439 | 8.33° C | 84% | 1007.4 hPa | 4.83 mm | - | 16 W/m² | - |
| 1777984135 | 8.33° C | 82% | 1007.4 hPa | 4.32 mm | - | 12 W/m² | - |
| 1777983833 | 8.33° C | 80% | 1007.4 hPa | 3.05 mm | - | 10 W/m² | - |
| 1777983529 | 8.89° C | 79% | 1007.6 hPa | 3.05 mm | - | 6 W/m² | - |
| 1777983226 | 9.44° C | 79% | 1008 hPa | 3.56 mm | - | 6 W/m² | - |
| 1777982922 | 9.44° C | 75% | 1007.8 hPa | 3.05 mm | - | 6 W/m² | - |
| 1777982618 | 10° C | 70% | 1007.4 hPa | 1.27 mm | - | 4 W/m² | - |
| 1777982317 | 10° C | 65% | 1007.3 hPa | 0 mm | - | 4 W/m² | - |
| 1777982015 | 10.56° C | 60% | 1006.9 hPa | 0 mm | - | 3 W/m² | - |
| 1777981712 | 10.56° C | 56% | 1006.6 hPa | 0 mm | - | 3 W/m² | - |
| 1777981409 | 10.56° C | 53% | 1006.7 hPa | 0 mm | - | 3 W/m² | - |
| 1777981105 | 10.56° C | 52% | 1006.7 hPa | 0 mm | - | 2 W/m² | - |
| 1777980802 | 10.56° C | 53% | 1006.3 hPa | 0 mm | - | 1 W/m² | - |
| 1777980497 | 11.11° C | 53% | 1006.2 hPa | 0 mm | - | 1 W/m² | - |
| 1777980195 | 11.11° C | 54% | 1005.8 hPa | 0 mm | - | 1 W/m² | - |
| 1777979890 | 11.11° C | 53% | 1005.4 hPa | 0 mm | - | 2 W/m² | - |
* Rain latest hour (hover to see other rain measurements)
** Current wind speed in m/s (hover to see current wind gust speed)